Location: ????? ??????
(37.8317°N, 23.8750°E)
Time: 13:19:09
(UTC+00:00)

Cosmos 1455 - Pass Details

Date: 20 January 2021
Orbit: 499 x 520 km, 82.5° (Epoch: 04 March)

Event Time Altitude Azimuth Distance (km) Brightness Sun altitude
Rises 17:22:36 0° 348° (NNW) 2,627 5.8 -21.1°
Reaches altitude 10° 17:24:45 10° 344° (NNW) 1,740 4.9 -21.5°
Maximum altitude 17:28:30 57° 266° (W) 612 2.8 -22.3°
Drops below altitude 10° 17:32:14 10° 187° (S) 1,739 5.0 -23.0°
Sets 17:34:23 0° 183° (S) 2,624 5.9 -23.4°
